Pittsfield, MA

5:39 AM EST on December 16, 2019 (GMT -0500)
Pittsfield Municipal

Weather History for KPSF - November, 2019

Change the Weather History Date:

Friday, November 22, 2019

  Actual Average Record
Temperature  
Mean Temperature 38 °F 36 °F  
Max Temperature 47 °F 44 °F 67 °F (1931)
Min Temperature 30 °F 27 °F 4 °F (2018)
Degree Days  
Heating Degree Days 26 29  
Month to date heating degree days 682 568  
Since 1 July heating degree days 1285 1404  
Cooling Degree Days 0 0  
Month to date cooling degree days 0 0  
Year to date cooling degree days 416 290  
Moisture  
Dew Point 30 °F    
Average Humidity 72    
Maximum Humidity 89    
Minimum Humidity 56    
Precipitation  
Precipitation 0.21 in 0.14 in 1.17 in (2005)
Month to date precipitation 2.02 2.83  
Year to date precipitation 41.58 41.28  
Sea Level Pressure  
Sea Level Pressure 29.71 in    
Wind  
Wind Speed 9 mph ()    
Max Wind Speed 33 mph    
Max Gust Speed 46 mph    
Visibility 8.2 miles    
Events Rain , Snow    
T = Trace of Precipitation, MM = Missing Value Source: Averaged Metar Reports

Daily Weather History Graph

Daily Weather History Graph

Search for Another Location

Airport or City:

Astronomy

Nov. 22, 2019 Rise Set
Actual Time 6:52 AM EST 4:25 PM EST
Civil Twilight 6:21 AM EST 4:56 PM EST
Nautical Twilight 5:47 AM EST 5:30 PM EST
Astronomical Twilight 5:13 AM EST 6:04 PM EST
Moon 1:47 AM EST (11/22) 2:31 PM EST (11/22)
Length of Visible Light 10h 34m
Length of Day
9h 33m
Waning Crescent, 20% of the Moon is Illuminated
Nov 22
Waning Crescent
Nov 26
New
Dec 4
First Quarter
Dec 12
Full
Dec 18
Last Quarter

Hourly Weather History & Observations

Time (EST) Temp. Windchill Dew Point Humidity Pressure Visibility Wind Dir Wind Speed Gust Speed Precip Events Conditions
12:54 AM 35.1 °F - 32.0 °F 89% 29.87 in 7.0 mi Calm Calm - N/A   Overcast
1:54 AM 39.9 °F 36.7 °F 34.0 °F 79% 29.84 in 10.0 mi South 4.6 mph - 0.00 in   Overcast
2:54 AM 43.0 °F 39.5 °F 33.1 °F 68% 29.79 in 10.0 mi Variable 5.8 mph - N/A   Overcast
3:54 AM 44.1 °F 40.8 °F 32.0 °F 63% 29.77 in 10.0 mi SE 5.8 mph - N/A   Overcast
4:54 AM 44.1 °F - 32.0 °F 63% 29.75 in 10.0 mi Calm Calm - N/A   Overcast
5:54 AM 44.1 °F 42.5 °F 33.1 °F 65% 29.75 in 10.0 mi Variable 3.5 mph - N/A   Overcast
6:54 AM 44.1 °F 38.6 °F 33.1 °F 65% 29.73 in 10.0 mi SW 10.4 mph - N/A   Overcast
7:54 AM 45.0 °F 43.5 °F 34.0 °F 65% 29.68 in 10.0 mi Variable 3.5 mph - N/A   Overcast
8:54 AM 46.9 °F - 35.1 °F 63% 29.63 in 10.0 mi Variable 5.8 mph - N/A   Overcast
9:54 AM 46.9 °F - 35.1 °F 63% 29.64 in 10.0 mi SW 9.2 mph 18.4 mph N/A   Mostly Cloudy
10:54 AM 46.0 °F 40.2 °F 37.0 °F 71% 29.61 in 10.0 mi SW 12.7 mph 20.7 mph 0.01 in   Overcast
11:54 AM 44.1 °F 40.1 °F 39.0 °F 82% 29.61 in 3.0 mi Variable 6.9 mph - 0.03 in Rain Light Rain
12:22 PM 41.0 °F 33.9 °F 36.0 °F 82% 29.64 in 2.5 mi WNW 12.7 mph 23.0 mph 0.06 in Rain Rain
12:42 PM 39.0 °F 31.8 °F 35.1 °F 86% 29.65 in 2.5 mi WNW 11.5 mph 18.4 mph 0.10 in Rain Rain
12:49 PM 37.4 °F 30.3 °F 33.8 °F 87% 29.65 in 3.0 mi NW 10.4 mph 19.6 mph 0.11 in Rain Light Rain
12:54 PM 37.0 °F 29.3 °F 33.1 °F 86% 29.67 in 3.0 mi NW 11.5 mph 19.6 mph 0.12 in Rain Light Rain
1:06 PM 37.0 °F 29.8 °F 33.1 °F 86% 29.65 in 4.0 mi NW 10.4 mph 23.0 mph 0.01 in Rain Light Rain
1:36 PM 36.0 °F 27.5 °F 32.0 °F 86% 29.64 in 6.0 mi WNW 12.7 mph 23.0 mph 0.04 in Snow Light Snow
1:54 PM 36.0 °F 27.5 °F 32.0 °F 86% 29.65 in 8.0 mi WNW 12.7 mph - 0.04 in Snow Light Snow
2:54 PM 37.0 °F 28.1 °F 32.0 °F 82% 29.63 in 10.0 mi WNW 15.0 mph 28.8 mph 0.01 in   Overcast
3:45 PM 37.0 °F 26.4 °F 28.9 °F 73% 29.63 in 10.0 mi WNW 20.7 mph 33.4 mph 0.00 in   Mostly Cloudy
3:54 PM 37.0 °F 25.6 °F 28.0 °F 70% 29.64 in 10.0 mi West 24.2 mph 46.0 mph 0.00 in   Mostly Cloudy
4:54 PM 36.0 °F 24.2 °F 25.0 °F 64% 29.69 in 10.0 mi West 24.2 mph 41.4 mph N/A   Scattered Clouds
5:54 PM 35.1 °F 23.0 °F 24.1 °F 64% 29.73 in 10.0 mi WNW 24.2 mph 35.7 mph N/A   Mostly Cloudy
6:54 PM 34.0 °F 22.7 °F 24.1 °F 67% 29.77 in 10.0 mi WNW 19.6 mph 27.6 mph N/A   Overcast
7:54 PM 34.0 °F 21.0 °F 19.9 °F 56% 29.80 in 10.0 mi WNW 26.5 mph 33.4 mph N/A   Overcast
8:54 PM 33.1 °F 20.3 °F 19.9 °F 59% 29.83 in 10.0 mi WNW 24.2 mph 32.2 mph N/A   Overcast
9:54 PM 32.0 °F 20.8 °F 19.0 °F 59% 29.84 in 10.0 mi WNW 17.3 mph 36.8 mph N/A   Overcast
11:54 PM 30.0 °F 16.9 °F 18.0 °F 61% 29.87 in 10.0 mi West 21.9 mph 33.4 mph N/A   Clear